TimeCST,TemperatureF,Dew PointF,Humidity,Sea Level PressureIn,VisibilityMPH,Wind Direction,Wind SpeedMPH,Gust SpeedMPH,PrecipitationIn,Events,Conditions,WindDirDegrees,DateUTC
12:52 AM,26.1,18.0,71,30.04,10.0,West,12.7,-,N/A,,Overcast,280,2013-01-31 06:52:00
1:11 AM,26.1,18.0,71,29.99,10.0,West,6.9,-,N/A,,Scattered Clouds,270,2013-01-31 07:11:00
1:52 AM,23.0,17.1,78,30.02,10.0,SW,4.6,-,N/A,,Clear,230,2013-01-31 07:52:00
2:52 AM,21.9,17.1,82,30.02,10.0,SW,6.9,-,N/A,,Clear,230,2013-01-31 08:52:00
3:52 AM,21.0,17.1,85,30.01,10.0,SSW,6.9,-,N/A,,Clear,210,2013-01-31 09:52:00
4:52 AM,21.0,17.1,85,30.02,10.0,Calm,Calm,-,N/A,,Clear,0,2013-01-31 10:52:00
5:52 AM,19.9,16.0,85,30.03,10.0,SSW,6.9,-,N/A,,Clear,200,2013-01-31 11:52:00
6:52 AM,21.9,18.0,85,30.01,10.0,South,6.9,-,N/A,,Scattered Clouds,180,2013-01-31 12:52:00
7:52 AM,23.0,19.0,85,30.02,10.0,SSE,4.6,-,N/A,,Clear,150,2013-01-31 13:52:00
8:52 AM,27.0,21.0,78,30.06,10.0,SW,3.5,-,N/A,,Mostly Cloudy,220,2013-01-31 14:52:00
9:52 AM,34.0,23.0,64,30.07,10.0,WNW,16.1,23.0,N/A,,Partly Cloudy,290,2013-01-31 15:52:00
10:52 AM,36.0,24.1,62,30.09,10.0,WNW,10.4,-,N/A,,Clear,290,2013-01-31 16:52:00
11:52 AM,37.0,24.1,59,30.11,10.0,WNW,11.5,-,N/A,,Mostly Cloudy,300,2013-01-31 17:52:00
12:52 PM,37.0,24.1,59,30.14,10.0,NW,15.0,-,N/A,,Overcast,320,2013-01-31 18:52:00
1:14 PM,34.0,25.0,70,30.12,2.5,NNW,18.4,-,0.00,Snow,Light Snow,330,2013-01-31 19:14:00
1:32 PM,32.0,26.1,79,30.13,2.5,NW,16.1,24.2,0.00,Snow,Light Snow,310,2013-01-31 19:32:00
2:19 PM,28.0,25.0,88,30.16,1.0,NW,19.6,27.6,0.00,Snow,Light Snow,320,2013-01-31 20:19:00
2:52 PM,26.1,21.9,84,30.22,2.0,NNW,19.6,26.5,0.00,Snow,Light Snow,330,2013-01-31 20:52:00
3:00 PM,26.1,21.9,84,30.18,1.0,NW,16.1,28.8,0.00,Snow,Light Snow,320,2013-01-31 21:00:00
3:24 PM,26.1,21.9,84,30.17,3.0,NW,17.3,27.6,0.01,Snow,Light Snow,320,2013-01-31 21:24:00
3:42 PM,25.0,19.0,78,30.18,5.0,NNW,24.2,31.1,0.01,Snow,Light Snow,330,2013-01-31 21:42:00
3:52 PM,25.0,17.1,72,30.25,7.0,NW,18.4,-,0.01,Snow,Light Snow,320,2013-01-31 21:52:00
4:52 PM,24.1,14.0,65,30.27,10.0,NW,15.0,-,0.00,,Mostly Cloudy,310,2013-01-31 22:52:00
5:52 PM,21.0,10.9,65,30.31,10.0,NW,10.4,-,N/A,,Clear,320,2013-01-31 23:52:00
6:52 PM,19.9,9.0,62,30.34,10.0,NW,9.2,-,N/A,,Clear,310,2013-02-01 00:52:00
7:52 PM,19.0,8.1,62,30.38,10.0,NW,6.9,-,N/A,,Clear,310,2013-02-01 01:52:00
8:52 PM,18.0,8.1,65,30.42,10.0,NW,13.8,-,N/A,,Clear,320,2013-02-01 02:52:00
9:15 PM,16.0,6.1,65,30.38,10.0,NNW,15.0,-,N/A,,Clear,330,2013-02-01 03:15:00
9:52 PM,14.0,5.0,67,30.44,10.0,NNW,15.0,-,N/A,,Clear,330,2013-02-01 03:52:00
10:52 PM,12.9,1.9,62,30.45,10.0,NW,11.5,-,N/A,,Clear,320,2013-02-01 04:52:00
11:52 PM,10.9,3.0,70,30.46,10.0,NW,6.9,-,N/A,,Clear,320,2013-02-01 05:52:00